Regional Weather Roundup
Issued by NWS

Home | Current Version | Previous Version | Text Only | Print | Product List | Glossary Off
Versions: 1 2 3 4 5 6 7 8 9 10 11 12 13 14 15 16 17 18 19 20 21 22 23 24 25 26 27 28 29 30 31 32 33 34 35 36 37 38 39 40 41 42 43 44 45 46 47 48 49

000
ASUS43 KDMX 251607
RWRIA

WEATHER ROUNDUP FOR IOWA
NATIONAL WEATHER SERVICE DES MOINES IA
1000 AM CST TUE NOV 25 2014

NOTE: "FAIR" INDICATES FEW OR NO CLOUDS BELOW 12,000 FEET WITH NO
SIGNIFICANT WEATHER AND/OR OBSTRUCTIONS TO VISIBILITY.

* - THESE STATIONS ARE NOT NWS STATIONS...THUS NOT UNDER NWS
QUALITY CONTROL.  THEY ALSO DO NOT REPORT WEATHER SUCH
AS PRECIPITATION OR FOG.

IAZ001>003-012>014-020>022-031>034-043>046-251700-
   NORTHWEST IOWA

CITY           SKY/WX    TMP DP  RH WIND       PRES   REMARKS
CARROLL *      SUNNY     25   9  50 W9        30.11S WCI  15
CHEROKEE *     SUNNY     23  12  63 SW7       30.09R WCI  15
DENISON *      SUNNY     25   9  50 SW8       30.10R WCI  16
LE MARS *      MOSUNNY   25  12  58 S9        30.08S WCI  15
ORANGE CITY *  SUNNY     25  12  58 S6        30.05S WCI  18
SHELDON *      SUNNY     23  10  58 SW7       30.05R WCI  15
SIOUX CITY     MOSUNNY   27  13  55 SE7       30.10S WCI  19
SPENCER        SUNNY     23  10  57 SW9       30.06R WCI  13
STORM LAKE *   SUNNY     23   9  54 SW9       30.07S WCI  13
$$

IAZ055>058-069>071-079>083-090>094-251700-
   SOUTHWEST IOWA

CITY           SKY/WX    TMP DP  RH WIND       PRES   REMARKS
ATLANTIC *     SUNNY     25  10  54 SW6       30.14R WCI  18
AUDUBON *      SUNNY     25   9  50 SW8       30.11S WCI  16
CLARINDA *     SUNNY     28  10  47 W5        30.19R WCI  23
COUNCIL BLFS * SUNNY     28   9  43 SW7       30.12S WCI  21
CRESTON *      SUNNY     25  12  58 W7        30.14R WCI  17
HARLAN  *      SUNNY     27   7  43 SW7       30.16S WCI  19
LAMONI         SUNNY     25  13  60 W6        30.16R WCI  18
RED OAK *      SUNNY     28  10  47 W6        30.16S WCI  22
SHENANDOAH *   SUNNY     28  12  50 W6        30.18S WCI  22
$$

IAZ047>049-059>061-072>074-084-251700-
   CENTRAL IOWA

CITY           SKY/WX    TMP DP  RH WIND       PRES   REMARKS
AMES           SUNNY     22  11  62 VRB3      30.12S
ANKENY *       SUNNY     23  12  63 MISG      30.14R
CHARITON *     SUNNY     25  14  63 W7G13     30.15R WCI  17
DES MOINES     SUNNY     25  10  53 W5        30.14R WCI  19
GRINNELL*      SUNNY     21  16  79 W7        30.13R WCI  13
KNOXVILLE *    SUNNY     23  12  63 W7        30.14R WCI  15
MARSHALLTOWN   SUNNY     19  12  74 W8        30.11R WCI   9
PELLA *        SUNNY     25  14  63 NW6       30.16R WCI  18
PERRY *          N/A     25  14  63 W6        30.12F WCI  18
$$

IAZ004>006-015-016-023>025-035-036-251700-
   NORTH CENTRAL IOWA

CITY           SKY/WX    TMP DP  RH WIND       PRES   REMARKS
ALGONA *       SUNNY     21   9  58 SW6       30.08R WCI  14
CLARION *      SUNNY     19  12  73 W8        30.08F WCI   9
ESTHERVILLE    SUNNY     20   8  60 SW8       30.05R WCI  10
FORT DODGE *   SUNNY     21   9  58 SW6       30.10S WCI  14
MASON CITY     SUNNY     17  10  74 W10       30.08R WCI   5
FOREST CITY *  SUNNY     19  12  73 W6        30.07R WCI  11
IOWA FALLS *     N/A     19  12  73 W8        30.11R WCI   9
$$

IAZ007>011-017>019-026>030-037>042-050>054-066-251700-
   NORTHEAST IOWA

CITY           SKY/WX    TMP DP  RH WIND       PRES   REMARKS
CEDAR RAPIDS   SUNNY     18  12  77 W10       30.12R WCI   6
CHARLES CITY * SUNNY     14   7  73 W7        30.08S WCI   4
CLINTON *      SUNNY     18  10  73 W12       30.14R WCI   5
DECORAH *      PTSUNNY   14   9  79 SW5       30.06R WCI   6
DUBUQUE        PTSUNNY   16  12  84 W8        30.07R WCI   5
MONTICELLO *   MOSUNNY   18  12  79 W12       30.11R WCI   5
OELWEIN *      SUNNY     14  10  85 W10       30.09R WCI   1
WATERLOO       SUNNY     16   9  74 W8        30.11R WCI   5
$$

IAZ064-065-067-068-078-251700-
   EAST CENTRAL IOWA

CITY           SKY/WX    TMP DP  RH WIND       PRES   REMARKS
DAVENPORT      CLOUDY    18  12  77 W10       30.13R WCI   6
MT. PLEASANT * MOSUNNY   23  16  74 W8        30.16R WCI  14
MUSCATINE *    SUNNY     21  12  68 W8        30.17R WCI  12
QUAD CITIES    CLOUDY    20  14  77 W9        30.14R WCI   9
$$

IAZ062-063-075>077-085>089-095>099-251700-
   SOUTHEAST IOWA

CITY           SKY/WX    TMP DP  RH WIND       PRES   REMARKS
BURLINGTON     PTSUNNY   24  18  77 W5        30.15R WCI  18
FAIRFIELD *    SUNNY     23  16  74 VRB8      30.16R WCI  14
FORT MADISON * PTSUNNY   27  19  74 W5        30.17R WCI  21
KEOKUK *       PTSUNNY   27  21  80 W9        30.16R WCI  17
OSKALOOSA *      N/A     23  16  74 W7        30.15S WCI  15
CENTERVILLE *  SUNNY     25  16  68 W3        30.17R
OTTUMWA        SUNNY     24  15  68 W6        30.14R WCI  17
WASHINGTON *   PTSUNNY   21  18  86 W10       30.15R WCI  10
$$

ABBREVIATIONS USED IN REMARKS
   TC - TEMPERATURES IN CELSIUS
  WCI - WIND CHILL INDEX
   HX - HEAT INDEX
  VSB - VISIBILITY
$$



USA.gov is the U.S. government's official web portal to all federal, state and local government web resources and services.